THOR ABLESTAR DEB, 1942

Orbit data source: Space-Track

THOR ABLESTAR DEB, 1942 is space debris in LEO originally from a launch on Thu, 29 Jun 1961 UTC launched from the Air Force Eastern Test Range (AFETR). Debris objects in space refer to the collection of defunct objects orbiting the Earth. Examples of debris include non-operational satellites, rocket bodies, and fragments generated from explosions, collisions, or faulty payload assembly.

Loading next visibility...
Identifier
1942, 1961-015HS
Orbit
LEO
Country
Flag of USUS
Related business
Manufacturer
Unknown
Mission
Spacecraft
Bus & Motor
Unknown
Mass
Unknown
Launch date (UTC)
1961-06-29 (65 years ago)
Launch vehicle
Unknown
Launch site
Air Force Eastern Test Range (AFETR)
Object type
Payload
Rocket body
Debris
Shape & HBR
Unknown shape, 0.1 m
Radar Cross Section
Small (<0.1 m²)

Expand to show TLE details & history
Last TLE update: 13 hours ago

TLE from 13 hours ago
0 THOR ABLESTAR DEB
1 01942U 61015HS  26127.19241486  .00000239  00000-0  60596-3 0  9995
2 01942  67.2686  86.2285 0347423 277.8449 192.1275 13.13372363111437
Epoch: 2026-05-07T04:37Z
TLE epoch observation values (Epoch: 2026-05-07T04:37:04.643Z)
Latitude
60.70195°
Longitude
-76.06988°
Altitude
1,477.852 km
Speed
7.008 km/s
True Right ascension
14h 32m 57s
True Declination
60° 34' 06"
Sunlit
Object was in daylight at epoch
Visualization orbit readout
Latitude
Unknown
Longitude
Unknown
Altitude
Unknown
Speed
Unknown
Apparent Right ascension
Unknown
Apparent Declination
Unknown
Sunlit
N/A
Visualization observer readout
Local Sidereal Time
01:19:26
Azimuth
Unknown
Elevation
Unknown
Doppler factor
Unknown
Orbital elements
Apogee altitude
1,472.12 km
Perigee altitude
944.963 km
Semi-major axis
7,586.678 km
Eccentricity
0.03474
Inclination
67.2686°
RAAN
86.2285°
Arg. of periapsis
277.8449°
True anomaly
191.32525°
Mean anomaly
192.1275°
Eccentric anomaly
191.72305°
Mean motion
3.28447 °/min
Orbital period
109.61 mins
BSTAR
0.00060596
Loading maneuver chart data...
Computing Atmospheric mass density...

Documentation

Showing up to 5 results
|